Terug naar catalogus

COSMOS 1257

ActiefNavigatieLEO
NORAD 12327·PAYLOAD·🇷🇺 Russia

Gelanceerd Mar 6, 1981 vanaf Plesetsk Cosmodrome

Loading…

Volgende Passages (komende 24 uur)

TLE

VersSource: Space-Track

Epoch: Sep 14, 2026, 14:37 UTC

1 12327U 81022H   26257.60950507 -.00000007  00000-0  62373-4 0  9995
2 12327  74.0290 300.9653 0006582 168.7941 359.8779 12.47858730 73825

Volg COSMOS 1257 in realtime met AllMySat

Download on the App Store